STARLINK-31973, 59943

Orbit data source: Space-Track

STARLINK-31973, 59943 is a payload satellite owned by SpaceX/Seattle (US) in LEO that was launched on Sat, 01 Jun 2024 UTC via an FALCON 9 launch vehicle from the Air Force Eastern Test Range (AFETR). Payload-class satellites include a variety of spacecraft equipped with specific instruments for various scientific and technological missions. These include communications satellites like Starlink; space stations such as the ISS; scientific satellites like the Hubble; Earth observation satellites from companies like Planet Labs, Umbra, and HawkEye 360; GPS; miniature CubeSats for education and research; and military/defense satellites.

Loading next visibility...
Identifier
59943, 2024-106X
Orbit
LEO
Country
Flag of USUS
Related business
Manufacturer
SpaceX/Seattle
Mission
Operational Commercial Communications
Bus & Motor
STARLINK V2M, Unknown motor
Mass
730 kg wet, ~700 kg dry
Launch date (UTC)
2024-06-01 (1 year ago)
Launch vehicle
FALCON 9
Launch site
Air Force Eastern Test Range (AFETR)
Object type
Payload
Rocket body
Debris
Shape & HBR
Box + 2 Pan, 17.7 m
Radar Cross Section
33.884 m², Large (>1 m²)

Expand to show TLE details & history
Last TLE update: 2 days ago

TLE from 2 days ago
0 STARLINK-31973
1 59943U 24106X   25308.75699773 -.00000229  00000-0  11900-5 0  9994
2 59943  43.0027 318.2856 0001202 291.6291  68.4433 15.27580499 81418
Epoch: 2025-11-04T18:10Z
TLE epoch observation values (Epoch: 2025-11-04T18:10:04.603Z)
Latitude
-0.00001°
Longitude
1.52697°
Altitude
482.52 km
Speed
7.626 km/s
True Right ascension
21h 13m 08s
True Declination
0° 00' 00"
Sunlit
Object was in daylight at epoch
Visualization orbit readout
Latitude
Unknown
Longitude
Unknown
Altitude
Unknown
Speed
Unknown
Apparent Right ascension
Unknown
Apparent Declination
Unknown
Sunlit
N/A
Visualization observer readout
Local Sidereal Time
02:17:34
Azimuth
Unknown
Elevation
Unknown
Doppler factor
Unknown
Orbital elements
Apogee altitude
485.817 km
Perigee altitude
484.167 km
Semi-major axis
6,863.129 km
Eccentricity
0.00012
Inclination
43.0027°
RAAN
318.2856°
Arg. of periapsis
291.6291°
True anomaly
68.45611°
Mean anomaly
68.4433°
Eccentric anomaly
68.44971°
Mean motion
3.81733 °/min
Orbital period
94.31 mins
BSTAR
0.00000119
Loading maneuver chart data...
Computing Atmospheric mass density...
Loading historical data...
Loading historical data...
Loading historical data...
Loading historical data...
Loading historical data...
Loading historical data...
Loading historical data...

Documentation

Showing up to 5 results
|